period_start,C,m1,H,J0,J1,J2,J3,J4,J5,JA,JB,JC,JD,JJ,JK,JN,#
2016-06-28 00:02:49,0.00,0.20,0.00,24.43,28.60,31.27,14.51,46.89,1021.49,2032.99,3412.49,3031.01,3442.03,599.96,596.03,7.81,0000 0000 0000 0000 000000
2016-06-28 00:07:50,0.00,0.20,0.00,24.42,28.60,31.27,14.44,46.83,1021.50,2032.99,3412.16,3031.00,3442.01,599.90,595.91,7.86,0000 0000 0000 0000 000000
2016-06-28 00:12:52,0.00,0.20,0.00,24.41,28.60,31.26,14.44,46.88,1021.50,2032.99,3412.07,3031.00,3442.00,599.85,595.91,7.91,0000 0000 0000 0000 000000
2016-06-28 00:17:53,0.00,0.20,0.00,24.42,28.60,31.25,14.45,46.76,1021.50,2032.99,3411.99,3030.94,3441.94,599.91,595.90,7.96,0000 0000 0000 0000 000000
2016-06-28 00:22:54,0.18,0.21,0.00,24.43,28.60,31.25,14.47,46.81,1021.50,2032.99,3409.50,3028.40,3438.68,599.72,595.74,8.01,0000 0000 0000 0000 000000
2016-06-28 00:27:56,0.00,0.21,0.00,24.42,28.60,31.26,14.61,46.92,1021.51,2032.99,3408.99,3027.91,3438.02,600.53,596.67,8.06,0000 0000 0000 0000 000000
2016-06-28 00:32:57,0.00,0.21,0.00,24.43,28.60,31.26,14.49,46.91,1021.53,2032.99,3408.98,3027.82,3438.00,599.94,595.94,8.11,0000 0000 0000 0000 000000
2016-06-28 00:37:58,0.00,0.21,0.00,24.44,28.60,31.26,14.51,47.02,1021.51,2032.99,3408.94,3027.70,3438.00,600.01,596.07,8.16,0000 0000 0000 0000 000000
2016-06-28 00:43:00,0.04,0.21,0.00,24.45,28.60,31.25,14.47,47.10,1021.50,2032.99,3408.51,3027.22,3437.64,600.11,596.03,8.21,0000 0000 0000 0000 000000
2016-06-28 00:48:01,0.00,0.21,0.00,24.48,28.60,31.25,14.43,47.09,1021.35,2032.99,3408.01,3026.99,3437.04,599.92,595.68,8.26,0000 0000 0000 0000 000000
2016-06-28 00:53:02,0.00,0.21,0.00,24.48,28.60,31.25,14.49,47.08,1021.46,2032.99,3408.00,3026.98,3437.02,600.26,596.13,8.31,0000 0000 0000 0000 000000
2016-06-28 00:58:03,0.00,0.21,0.00,24.51,28.60,31.24,14.45,47.17,1021.50,2032.99,3407.99,3026.97,3437.01,599.94,595.76,8.36,0000 0000 0000 0000 000000
2016-06-28 01:03:04,0.00,0.21,0.00,24.51,28.60,31.24,14.36,46.93,1021.42,2032.99,3407.99,3026.97,3437.00,599.98,595.65,8.41,0000 0000 0000 0000 000000
2016-06-28 01:08:05,0.00,0.21,0.00,24.51,28.60,31.24,14.52,47.03,1021.32,2032.99,3407.97,3026.95,3437.00,600.10,595.90,8.46,0000 0000 0000 0000 000000
2016-06-28 01:13:06,0.00,0.21,0.00,24.52,28.60,31.25,14.46,46.97,1021.04,2032.99,3407.93,3026.80,3437.00,599.96,595.53,8.51,0000 0000 0000 0000 000000
2016-06-28 01:18:08,0.01,0.21,0.00,24.54,28.60,31.24,14.49,46.90,1021.17,2032.99,3407.75,3026.47,3436.99,599.93,595.54,8.56,0000 0000 0000 0000 000000
2016-06-28 01:23:09,0.01,0.21,0.00,24.56,28.61,31.25,14.42,46.85,1021.47,2032.99,3407.28,3026.15,3436.97,599.98,595.76,8.61,0000 0000 0000 0000 000000
2016-06-28 01:28:10,0.00,0.21,0.00,24.58,28.62,31.25,14.48,46.87,1021.48,2032.99,3407.09,3026.06,3436.95,600.02,595.74,8.66,0000 0000 0000 0000 000000
2016-06-28 01:33:11,0.00,0.21,0.00,24.60,28.62,31.25,14.47,46.92,1021.15,2032.99,3407.11,3026.05,3436.91,600.09,595.58,8.71,0000 0000 0000 0000 000000
2016-06-28 01:38:13,0.00,0.21,0.00,24.60,28.62,31.25,14.51,46.88,1021.02,2032.99,3407.07,3026.03,3436.84,600.13,595.44,8.76,0000 0000 0000 0000 000000
2016-06-28 01:43:14,0.00,0.21,0.00,24.61,28.62,31.26,14.45,46.84,1021.01,2032.98,3407.03,3026.02,3436.66,600.01,595.25,8.81,0000 0000 0000 0000 000000
2016-06-28 01:48:15,0.00,0.21,0.00,24.63,28.62,31.27,14.49,46.97,1021.00,2032.99,3407.01,3026.01,3436.48,600.08,595.50,8.86,0000 0000 0000 0000 000000
2016-06-28 01:53:17,0.00,0.21,0.00,24.63,28.63,31.26,14.47,46.98,1021.01,2032.98,3407.01,3026.01,3436.27,600.08,595.40,8.91,0000 0000 0000 0000 000000
2016-06-28 01:58:18,0.00,0.21,0.00,24.64,28.64,31.26,14.43,46.83,1021.02,2032.96,3407.00,3026.00,3436.07,599.81,595.11,8.96,0000 0000 0000 0000 000000
2016-06-28 02:03:19,-0.00,0.21,0.00,24.65,28.65,31.27,14.37,46.90,1021.01,2032.97,3407.00,3026.00,3436.03,600.07,595.39,9.01,0000 0000 0000 0000 000000
2016-06-28 02:08:21,0.00,0.21,0.00,24.64,28.65,31.26,14.49,46.90,1021.00,2032.95,3406.99,3026.00,3436.02,600.08,595.42,9.06,0000 0000 0000 0000 000000
2016-06-28 02:13:22,-0.00,0.21,0.00,24.64,28.65,31.26,14.46,46.88,1020.82,2032.94,3406.98,3025.99,3436.01,600.03,595.28,9.11,0000 0000 0000 0000 000000
2016-06-28 02:18:23,-0.00,0.21,0.00,24.64,28.65,31.27,14.43,46.77,1020.55,2032.92,3406.98,3025.99,3436.00,599.93,594.87,9.16,0000 0000 0000 0000 000000
2016-06-28 02:23:24,0.00,0.21,0.00,24.64,28.65,31.27,14.39,46.76,1020.54,2032.96,3406.98,3025.99,3436.02,600.18,595.30,9.21,0000 0000 0000 0000 000000
2016-06-28 02:28:25,-0.00,0.21,0.00,24.65,28.65,31.28,14.51,46.76,1020.53,2032.93,3406.92,3025.99,3436.00,600.14,595.11,9.26,0000 0000 0000 0000 000000
2016-06-28 02:33:26,0.01,0.21,0.00,24.64,28.65,31.29,14.38,46.81,1020.52,2032.94,3406.66,3025.99,3436.00,599.75,594.73,9.31,0000 0000 0000 0000 000000
2016-06-28 02:38:27,-0.00,0.21,0.00,24.64,28.65,31.28,14.44,46.79,1020.51,2032.96,3406.68,3025.99,3436.00,600.04,595.02,9.36,0000 0000 0000 0000 000000
2016-06-28 02:43:29,0.00,0.21,0.00,24.63,28.64,31.28,14.56,46.89,1020.31,2032.95,3406.53,3025.98,3436.00,600.36,595.31,9.41,0000 0000 0000 0000 000000
2016-06-28 02:48:30,0.00,0.21,0.00,24.63,28.64,31.28,14.44,46.99,1020.06,2032.93,3406.16,3025.97,3436.00,600.01,594.76,9.46,0000 0000 0000 0000 000000
2016-06-28 02:53:31,-0.00,0.21,0.00,24.62,28.63,31.29,14.46,47.01,1020.04,2032.90,3406.03,3025.95,3435.99,600.15,594.99,9.51,0000 0000 0000 0000 000000
2016-06-28 02:58:32,0.01,0.21,0.00,24.63,28.62,31.28,14.48,46.83,1020.05,2032.94,3406.02,3025.96,3435.99,600.09,594.85,9.56,0000 0000 0000 0000 000000
2016-06-28 03:03:34,0.00,0.21,0.00,24.63,28.62,31.27,14.46,46.86,1020.04,2032.96,3406.02,3025.96,3435.99,599.83,594.44,9.62,0000 0000 0000 0000 000000
2016-06-28 03:08:35,0.00,0.21,0.00,24.62,28.62,31.29,14.44,46.77,1020.04,2032.98,3406.01,3025.96,3435.98,600.00,594.78,9.67,0000 0000 0000 0000 000000
2016-06-28 03:13:36,0.00,0.21,0.00,24.62,28.62,31.29,14.42,46.81,1020.04,2032.99,3406.00,3025.97,3435.99,599.90,594.68,9.72,0000 0000 0000 0000 000000
2016-06-28 03:18:38,0.00,0.21,0.00,24.63,28.62,31.29,14.42,46.75,1020.04,2032.98,3406.00,3025.96,3435.98,599.90,594.59,9.77,0000 0000 0000 0000 000000
2016-06-28 03:23:39,0.00,0.21,0.00,24.62,28.62,31.28,14.45,46.73,1020.04,2032.97,3406.00,3025.96,3435.98,600.22,594.94,9.82,0000 0000 0000 0000 000000
2016-06-28 03:28:40,0.00,0.21,0.00,24.62,28.62,31.28,14.46,46.75,1020.04,2032.99,3406.00,3025.96,3435.98,600.22,595.05,9.87,0000 0000 0000 0000 000000
2016-06-28 03:33:41,0.00,0.21,0.00,24.62,28.62,31.29,14.43,46.99,1020.04,2032.99,3406.00,3025.95,3435.99,600.30,595.12,9.92,0000 0000 0000 0000 000000
2016-06-28 03:38:42,0.00,0.21,0.00,24.62,28.62,31.29,14.40,46.99,1020.03,2032.98,3405.99,3025.90,3435.97,599.93,594.67,9.97,0000 0000 0000 0000 000000
2016-06-28 03:43:43,0.01,0.21,0.00,24.62,28.63,31.30,14.46,46.71,1019.93,2032.98,3405.98,3025.71,3435.88,600.12,594.88,10.02,0000 0000 0000 0000 000000
2016-06-28 03:48:45,0.00,0.21,0.00,24.62,28.64,31.29,14.42,46.78,1019.66,2032.99,3405.96,3025.56,3435.83,599.99,594.58,10.07,0000 0000 0000 0000 000000
2016-06-28 03:53:46,0.01,0.22,0.00,24.62,28.65,31.31,14.38,46.76,1019.55,2032.98,3405.95,3025.27,3435.53,599.79,594.40,10.12,0000 0000 0000 0000 000000
2016-06-28 03:58:47,0.02,0.22,0.00,24.63,28.65,31.31,14.45,46.71,1019.55,2032.98,3405.55,3024.93,3435.02,600.02,594.55,10.17,0000 0000 0000 0000 000000
2016-06-28 04:03:48,0.12,0.22,0.00,24.62,28.65,31.30,14.41,46.83,1019.55,2032.97,3403.31,3023.11,3432.95,600.07,594.52,10.22,0000 0000 0000 0000 000000
2016-06-28 04:08:49,0.03,0.22,0.00,24.62,28.66,31.29,14.40,46.90,1019.54,2032.98,3402.83,3022.59,3432.06,599.73,594.24,10.27,0000 0000 0000 0000 000000
2016-06-28 04:13:51,0.02,0.23,0.00,24.61,28.67,31.30,14.44,46.88,1019.39,2032.99,3402.15,3022.07,3431.85,599.55,594.03,10.32,0000 0000 0000 0000 000000
2016-06-28 04:18:52,0.01,0.23,0.00,24.62,28.67,31.30,14.44,46.87,1019.16,2032.99,3401.97,3022.00,3431.21,599.96,594.25,10.37,0000 0000 0000 0000 000000
2016-06-28 04:23:53,0.00,0.23,0.00,24.63,28.67,31.30,14.39,46.91,1019.08,2032.99,3401.89,3021.99,3431.04,600.00,594.18,10.42,0000 0000 0000 0000 000000
2016-06-28 04:28:54,0.00,0.23,0.00,24.62,28.69,31.32,14.55,46.98,1019.07,2032.99,3401.55,3021.98,3431.01,600.42,594.60,10.47,0000 0000 0000 0000 000000
2016-06-28 04:33:55,0.00,0.23,0.00,24.64,28.70,31.32,14.33,46.80,1019.13,2032.99,3401.33,3021.95,3431.00,599.61,593.79,10.52,0000 0000 0000 0000 000000
2016-06-28 04:38:57,0.00,0.23,0.00,24.64,28.70,31.30,14.44,46.80,1019.12,2032.99,3401.27,3021.95,3431.00,600.03,594.24,10.57,0000 0000 0000 0000 000000
2016-06-28 04:43:58,0.00,0.23,0.00,24.64,28.70,31.31,14.41,46.84,1019.11,2032.98,3401.08,3021.88,3431.00,599.98,594.22,10.62,0000 0000 0000 0000 000000
2016-06-28 04:48:59,0.01,0.23,0.00,24.64,28.72,31.33,14.42,46.87,1019.19,2032.98,3401.01,3021.49,3430.99,599.99,594.17,10.67,0000 0000 0000 0000 000000
2016-06-28 04:54:01,0.00,0.23,0.00,24.65,28.72,31.33,14.42,46.96,1019.06,2032.98,3401.00,3021.16,3430.94,600.10,594.20,10.72,0000 0000 0000 0000 000000
2016-06-28 04:59:02,0.01,0.23,0.00,24.66,28.73,31.33,14.45,46.88,1019.06,2032.96,3400.99,3021.01,3430.60,599.78,593.96,10.77,0000 0000 0000 0000 000000
2016-06-28 05:04:03,0.00,0.23,0.00,24.67,28.75,31.33,14.39,46.98,1019.06,2032.94,3400.99,3021.01,3430.25,599.66,593.67,10.82,0000 0000 0000 0000 000000
2016-06-28 05:09:05,0.00,0.23,0.00,24.67,28.75,31.34,14.43,47.05,1019.06,2032.85,3400.96,3021.00,3430.06,599.45,593.59,10.87,0000 0000 0000 0000 000000
2016-06-28 05:14:06,-0.01,0.23,0.00,24.67,28.76,31.35,14.49,47.12,1019.05,2032.73,3400.96,3021.00,3430.03,599.88,593.93,10.92,0000 0000 0000 0000 000000
2016-06-28 05:19:07,-0.02,0.23,0.00,24.68,28.77,31.36,14.42,46.98,1018.96,2032.55,3400.93,3021.00,3430.00,599.92,594.07,10.97,0000 0000 0000 0000 000000
2016-06-28 05:24:09,-0.01,0.23,0.00,24.70,28.78,31.36,14.39,46.96,1018.98,2032.30,3400.61,3020.98,3430.00,600.01,594.10,11.02,0000 0000 0000 0000 000000
2016-06-28 05:29:10,-0.00,0.23,0.00,24.69,28.80,31.35,14.38,46.99,1019.04,2032.07,3400.16,3020.93,3429.99,599.59,593.65,11.07,0000 0000 0000 0000 000000
2016-06-28 05:34:12,0.00,0.23,0.00,24.70,28.80,31.36,14.41,46.93,1019.06,2032.05,3400.10,3020.89,3429.97,599.89,594.00,11.12,0000 0000 0000 0000 000000
2016-06-28 05:39:13,0.01,0.23,0.00,24.70,28.80,31.37,14.36,46.76,1019.05,2032.03,3400.02,3020.50,3429.90,599.90,593.87,11.17,0000 0000 0000 0000 000000
2016-06-28 05:44:14,0.01,0.23,0.00,24.71,28.80,31.38,14.42,46.87,1019.06,2032.02,3400.00,3020.19,3429.79,600.26,594.20,11.22,0000 0000 0000 0000 000000
2016-06-28 05:49:15,-0.00,0.23,0.00,24.72,28.80,31.38,14.42,46.89,1018.99,2032.01,3400.00,3020.23,3429.83,600.06,594.04,11.27,0000 0000 0000 0000 000000
2016-06-28 05:54:16,0.01,0.23,0.00,24.73,28.80,31.37,14.48,46.94,1018.87,2032.01,3400.00,3020.10,3429.51,599.96,593.83,11.32,0000 0000 0000 0000 000000
2016-06-28 05:59:18,0.00,0.23,0.00,24.75,28.80,31.38,14.36,46.82,1018.76,2032.00,3400.00,3020.09,3429.27,599.93,593.73,11.37,0000 0000 0000 0000 000000
2016-06-28 06:04:19,-0.00,0.23,0.00,24.74,28.80,31.36,14.44,46.88,1018.65,2032.01,3399.99,3020.10,3429.37,599.93,593.74,11.42,0000 0000 0000 0000 000000
2016-06-28 06:09:20,0.00,0.23,0.00,24.75,28.80,31.37,14.43,46.79,1018.63,2032.01,3399.99,3020.03,3429.17,600.03,593.59,11.47,0000 0000 0000 0000 000000
2016-06-28 06:14:22,0.00,0.23,0.00,24.75,28.80,31.39,14.35,46.83,1018.59,2032.01,3399.99,3020.05,3429.17,599.85,593.47,11.52,0000 0000 0000 0000 000000
2016-06-28 06:19:23,0.00,0.23,0.00,24.75,28.80,31.39,14.49,46.68,1018.57,2032.00,3399.89,3020.02,3429.04,600.15,593.79,11.57,0000 0000 0000 0000 000000
2016-06-28 06:24:24,0.00,0.23,0.00,24.76,28.80,31.39,14.35,46.78,1018.57,2032.01,3399.69,3020.00,3429.02,599.80,593.42,11.62,0000 0000 0000 0000 000000
2016-06-28 06:29:25,-0.00,0.23,0.00,24.77,28.80,31.40,14.40,46.83,1018.57,2032.00,3399.54,3020.00,3429.01,599.85,593.44,11.67,0000 0000 0000 0000 000000
2016-06-28 06:34:26,0.00,0.23,0.00,24.78,28.80,31.40,14.41,46.89,1018.57,2032.00,3399.21,3020.00,3429.00,600.15,593.76,11.72,0000 0000 0000 0000 000000
2016-06-28 06:39:27,-0.00,0.23,0.00,24.80,28.81,31.39,14.35,46.83,1018.57,2032.00,3399.21,3020.00,3429.00,599.91,593.46,11.77,0000 0000 0000 0000 000000
2016-06-28 06:44:29,0.00,0.23,0.00,24.80,28.82,31.39,14.38,46.81,1018.57,2032.00,3399.07,3020.00,3429.00,599.78,593.52,11.82,0000 0000 0000 0000 000000
2016-06-28 06:49:30,0.00,0.23,0.00,24.81,28.82,31.40,14.40,46.84,1018.57,2032.00,3399.01,3020.00,3428.99,599.98,593.67,11.87,0000 0000 0000 0000 000000
2016-06-28 06:54:31,0.00,0.23,0.00,24.81,28.82,31.41,14.39,46.74,1018.55,2032.00,3399.00,3019.98,3428.95,599.86,593.39,11.92,0000 0000 0000 0000 000000
2016-06-28 06:59:33,0.00,0.23,0.00,24.82,28.82,31.41,14.41,46.90,1018.57,2032.00,3399.00,3019.98,3428.90,600.05,593.42,11.98,0000 0000 0000 0000 000000
2016-06-28 07:04:34,0.00,0.23,0.00,24.83,28.82,31.41,14.44,47.18,1018.57,2032.00,3398.99,3019.93,3428.83,599.98,593.62,12.03,0000 0000 0000 0000 000000
2016-06-28 07:09:35,0.00,0.23,0.00,24.85,28.83,31.41,14.40,46.77,1018.57,2032.00,3398.98,3019.91,3428.77,599.80,593.28,12.08,0000 0000 0000 0000 000000
2016-06-28 07:14:37,0.00,0.23,0.00,24.85,28.83,31.41,14.43,46.83,1018.57,2032.00,3398.97,3019.79,3428.46,599.80,593.38,12.13,0000 0000 0000 0000 000000
2016-06-28 07:19:38,0.01,0.23,0.00,24.85,28.84,31.42,14.45,46.75,1018.57,2032.00,3398.94,3019.63,3428.24,600.03,593.56,12.18,0000 0000 0000 0000 000000
2016-06-28 07:24:39,0.01,0.23,0.00,24.87,28.83,31.42,14.41,46.86,1018.57,2032.00,3398.76,3019.47,3428.13,599.93,593.48,12.23,0000 0000 0000 0000 000000
2016-06-28 07:29:41,0.01,0.23,0.00,24.87,28.83,31.42,14.44,46.80,1018.57,2031.99,3398.37,3019.34,3428.09,599.89,593.38,12.28,0000 0000 0000 0000 000000
2016-06-28 07:34:42,0.00,0.23,0.00,24.87,28.83,31.43,14.45,46.73,1018.57,2031.99,3398.22,3019.22,3428.04,600.09,593.49,12.33,0000 0000 0000 0000 000000
2016-06-28 07:39:43,-0.00,0.23,0.00,24.87,28.83,31.42,14.32,46.70,1018.57,2031.99,3398.13,3019.12,3428.03,599.70,593.28,12.38,0000 0000 0000 0000 000000
2016-06-28 07:44:44,-0.00,0.23,0.00,24.87,28.82,31.43,14.48,46.83,1018.57,2031.99,3398.06,3019.20,3428.04,600.13,593.47,12.43,0000 0000 0000 0000 000000
2016-06-28 07:49:45,0.00,0.23,0.00,24.87,28.82,31.43,14.36,46.60,1018.57,2031.99,3398.01,3019.06,3428.01,600.21,593.72,12.48,0000 0000 0000 0000 000000
2016-06-28 07:54:47,0.00,0.23,0.00,24.87,28.82,31.42,14.36,46.85,1018.53,2031.99,3398.02,3019.08,3428.02,599.55,593.04,12.53,0000 0000 0000 0000 000000
2016-06-28 07:59:48,0.00,0.23,0.00,24.87,28.82,31.44,14.36,46.92,1018.55,2031.99,3398.00,3019.03,3428.00,599.99,593.51,12.58,0000 0000 0000 0000 000000
2016-06-28 08:04:49,0.00,0.23,0.00,24.87,28.82,31.42,14.38,46.90,1018.56,2031.98,3398.00,3019.04,3428.00,600.03,593.51,12.63,0000 0000 0000 0000 000000
2016-06-28 08:09:51,-0.00,0.23,0.00,24.87,28.82,31.43,14.40,46.92,1018.57,2031.98,3398.00,3019.04,3428.00,599.96,593.39,12.68,0000 0000 0000 0000 000000
2016-06-28 08:14:52,0.00,0.23,0.00,24.87,28.82,31.42,14.44,46.78,1018.57,2031.99,3398.00,3019.04,3428.00,599.89,593.38,12.73,0000 0000 0000 0000 000000
2016-06-28 08:19:53,0.03,0.23,0.00,24.87,28.82,31.42,14.47,46.77,1018.57,2031.99,3397.39,3018.40,3427.21,599.96,593.31,12.78,0000 0000 0000 0000 000000
2016-06-28 08:24:55,0.26,0.25,0.00,24.87,28.82,31.42,14.41,46.83,1018.54,2031.99,3393.59,3014.24,3422.31,599.81,593.30,12.83,0000 0000 0000 0000 000000
2016-06-28 08:29:57,-0.00,0.25,0.00,24.87,28.82,31.43,14.44,46.73,1018.50,2031.99,3393.63,3014.01,3422.06,600.30,593.69,12.88,0000 0000 0000 0000 000000
2016-06-28 08:34:58,0.00,0.25,0.00,24.87,28.82,31.42,14.44,46.76,1018.34,2031.99,3393.65,3014.02,3422.07,599.92,593.18,12.93,0000 0000 0000 0000 000000
2016-06-28 08:39:58,0.06,0.25,0.00,24.87,28.82,31.41,14.35,46.71,1018.14,2031.99,3392.69,3013.44,3421.27,599.83,592.94,12.98,0000 0000 0000 0000 000000
2016-06-28 08:45:00,0.04,0.25,0.00,24.87,28.82,31.42,14.39,46.74,1018.09,2031.99,3391.95,3012.32,3420.05,599.68,592.72,13.03,0000 0000 0000 0000 000000
2016-06-28 08:50:01,0.00,0.25,0.00,24.87,28.82,31.42,14.43,46.62,1018.09,2031.99,3391.94,3012.16,3420.01,600.18,593.36,13.08,0000 0000 0000 0000 000000
2016-06-28 08:55:02,0.00,0.25,0.00,24.87,28.82,31.42,14.47,46.81,1018.09,2031.99,3391.96,3012.16,3420.01,600.28,593.37,13.13,0000 0000 0000 0000 000000
2016-06-28 09:00:04,0.00,0.25,0.00,24.87,28.82,31.42,14.40,46.69,1018.09,2031.99,3391.79,3012.06,3420.00,600.16,593.26,13.18,0000 0000 0000 0000 000000
2016-06-28 09:05:05,0.00,0.25,0.00,24.87,28.82,31.43,14.40,46.69,1018.10,2031.99,3391.61,3012.07,3420.00,599.83,592.90,13.23,0000 0000 0000 0000 000000
2016-06-28 09:10:06,0.00,0.25,0.00,24.87,28.83,31.42,14.36,46.78,1018.14,2031.99,3391.56,3012.05,3420.00,599.99,593.13,13.28,0000 0000 0000 0000 000000
2016-06-28 09:15:08,0.00,0.25,0.00,24.87,28.84,31.42,14.44,46.88,1018.15,2031.99,3391.20,3012.01,3420.00,600.09,593.42,13.33,0000 0000 0000 0000 000000
2016-06-28 09:20:09,0.00,0.25,0.00,24.87,28.85,31.44,14.32,46.73,1018.11,2031.99,3391.03,3012.00,3419.98,599.53,592.74,13.38,0000 0000 0000 0000 000000
2016-06-28 09:25:10,0.00,0.25,0.00,24.88,28.85,31.43,14.39,46.88,1018.09,2031.99,3391.02,3012.00,3419.99,600.05,593.19,13.43,0000 0000 0000 0000 000000
2016-06-28 09:30:12,0.00,0.25,0.00,24.87,28.85,31.44,14.41,46.67,1018.08,2031.99,3391.00,3012.00,3419.96,599.95,592.94,13.48,0000 0000 0000 0000 000000
2016-06-28 09:35:12,0.00,0.25,0.00,24.87,28.85,31.44,14.37,46.94,1018.08,2031.99,3391.00,3012.00,3419.93,600.02,593.17,13.53,0000 0000 0000 0000 000000
2016-06-28 09:40:14,0.00,0.25,0.00,24.87,28.85,31.45,14.41,46.68,1018.08,2031.99,3391.01,3012.00,3419.95,600.11,593.29,13.58,0000 0000 0000 0000 000000
2016-06-28 09:45:15,0.00,0.25,0.00,24.87,28.86,31.44,14.40,46.84,1018.08,2031.99,3391.00,3012.00,3419.90,599.84,592.90,13.63,0000 0000 0000 0000 000000
2016-06-28 09:50:16,-0.00,0.25,0.00,24.87,28.87,31.45,14.34,46.83,1018.07,2031.99,3391.00,3012.00,3419.79,599.94,593.09,13.68,0000 0000 0000 0000 000000
2016-06-28 09:55:18,0.00,0.25,0.00,24.87,28.87,31.45,14.30,46.81,1018.04,2031.98,3391.00,3011.99,3419.47,599.51,592.67,13.73,0000 0000 0000 0000 000000
2016-06-28 10:00:19,0.00,0.25,0.00,24.88,28.87,31.45,14.36,46.71,1017.92,2031.99,3391.00,3011.98,3419.24,600.09,593.10,13.78,0000 0000 0000 0000 000000
2016-06-28 10:05:20,0.00,0.25,0.00,24.88,28.87,31.45,14.36,46.78,1017.94,2031.99,3391.00,3011.97,3419.08,599.78,592.86,13.83,0000 0000 0000 0000 000000
2016-06-28 10:10:21,0.00,0.25,0.00,24.89,28.88,31.45,14.42,46.79,1017.64,2031.99,3390.98,3011.98,3419.12,599.96,592.82,13.88,0000 0000 0000 0000 000000
2016-06-28 10:15:23,0.00,0.25,0.00,24.89,28.89,31.46,14.43,46.88,1017.59,2031.99,3390.99,3011.98,3419.07,599.98,592.96,13.93,0000 0000 0000 0000 000000
2016-06-28 10:20:24,0.00,0.25,0.00,24.87,28.89,31.46,14.40,46.83,1017.61,2031.99,3390.92,3011.91,3419.02,599.94,592.90,13.98,0000 0000 0000 0000 000000
2016-06-28 10:25:25,0.01,0.25,0.00,24.87,28.90,31.46,14.34,46.79,1017.68,2031.98,3390.73,3011.78,3419.00,600.05,592.94,14.03,0000 0000 0000 0000 000000
2016-06-28 10:30:26,0.00,0.25,0.00,24.88,28.90,31.46,14.44,46.86,1017.82,2031.99,3390.63,3011.75,3419.00,600.35,593.32,14.08,0000 0000 0000 0000 000000
2016-06-28 10:35:28,0.01,0.25,0.00,24.87,28.90,31.46,14.37,46.92,1017.60,2031.99,3390.21,3011.49,3419.00,599.90,592.78,14.13,0000 0000 0000 0000 000000
2016-06-28 10:40:29,-0.00,0.25,0.00,24.88,28.90,31.47,14.44,46.91,1017.59,2031.99,3390.37,3011.68,3419.00,600.19,593.03,14.19,0000 0000 0000 0000 000000
2016-06-28 10:45:30,0.01,0.25,0.00,24.87,28.89,31.48,14.37,46.92,1017.59,2031.99,3390.07,3011.43,3419.00,599.79,592.68,14.24,0000 0000 0000 0000 000000
2016-06-28 10:50:32,-0.00,0.25,0.00,24.87,28.89,31.48,14.31,46.92,1017.59,2031.99,3390.03,3011.36,3419.00,599.40,592.27,14.29,0000 0000 0000 0000 000000
2016-06-28 10:55:32,0.00,0.25,0.00,24.87,28.88,31.47,14.37,46.76,1017.58,2031.99,3390.01,3011.23,3419.00,599.90,592.79,14.34,0000 0000 0000 0000 000000
2016-06-28 11:00:34,-0.00,0.25,0.00,24.87,28.88,31.47,14.45,46.79,1017.59,2031.99,3390.01,3011.27,3419.00,600.53,593.32,14.39,0000 0000 0000 0000 000000
2016-06-28 11:05:35,0.00,0.26,0.00,24.87,28.87,31.45,14.43,46.77,1017.58,2031.99,3390.00,3011.12,3418.99,600.14,593.07,14.44,0000 0000 0000 0000 000000
2016-06-28 11:10:36,0.00,0.26,0.00,24.86,28.87,31.45,14.45,46.80,1017.50,2031.99,3390.00,3011.11,3418.99,600.44,593.27,14.49,0000 0000 0000 0000 000000
2016-06-28 11:15:38,0.00,0.26,0.00,24.86,28.87,31.46,14.33,46.85,1017.50,2031.99,3390.00,3011.09,3418.99,599.67,592.56,14.54,0000 0000 0000 0000 000000
2016-06-28 11:20:39,0.00,0.26,0.00,24.87,28.87,31.47,14.43,46.95,1017.37,2031.99,3389.99,3011.05,3418.98,600.30,593.08,14.59,0000 0000 0000 0000 000000
2016-06-28 11:25:40,0.00,0.26,0.00,24.87,28.87,31.46,14.35,46.85,1017.15,2031.99,3389.98,3011.06,3418.98,599.95,592.53,14.64,0000 0000 0000 0000 000000
2016-06-28 11:30:42,0.00,0.26,0.00,24.85,28.87,31.46,14.43,46.88,1017.11,2031.99,3389.97,3011.03,3418.97,599.90,592.55,14.69,0000 0000 0000 0000 000000
2016-06-28 11:35:43,0.00,0.26,0.00,24.86,28.87,31.46,14.32,46.86,1017.11,2031.99,3389.97,3011.01,3418.96,599.75,592.45,14.74,0000 0000 0000 0000 000000
2016-06-28 11:40:44,0.00,0.26,0.00,24.85,28.87,31.46,14.41,46.80,1016.96,2031.99,3389.98,3011.03,3418.98,600.03,592.41,14.79,0000 0000 0000 0000 000000
2016-06-28 11:45:45,0.00,0.26,0.00,24.86,28.87,31.45,14.42,46.80,1016.66,2031.99,3389.96,3011.04,3418.96,599.79,592.20,14.84,0000 0000 0000 0000 000000
2016-06-28 11:50:46,0.00,0.26,0.00,24.85,28.87,31.45,14.38,46.66,1016.63,2031.99,3389.87,3011.04,3418.95,600.10,592.38,14.89,0000 0000 0000 0000 000000
2016-06-28 11:55:48,0.00,0.26,0.00,24.85,28.86,31.46,14.40,46.90,1016.62,2031.99,3389.76,3011.01,3418.87,600.01,592.39,14.94,0000 0000 0000 0000 000000
2016-06-28 12:00:49,-0.00,0.26,0.00,24.85,28.86,31.46,14.39,46.82,1016.62,2031.99,3389.66,3011.00,3418.85,599.79,592.11,14.99,0000 0000 0000 0000 000000
2016-06-28 12:05:50,0.01,0.26,0.00,24.85,28.85,31.45,14.38,46.83,1016.62,2031.99,3389.46,3011.00,3418.68,600.28,592.58,15.04,0000 0000 0000 0000 000000
2016-06-28 12:10:52,0.00,0.26,0.00,24.84,28.85,31.46,14.40,46.79,1016.62,2031.99,3389.20,3011.00,3418.61,600.05,592.45,15.09,0000 0000 0000 0000 000000
2016-06-28 12:15:53,0.00,0.26,0.00,24.84,28.85,31.45,14.32,46.90,1016.62,2031.99,3389.09,3011.00,3418.55,599.92,592.32,15.14,0000 0000 0000 0000 000000
2016-06-28 12:20:54,0.00,0.26,0.00,24.84,28.85,31.45,14.37,46.79,1016.62,2031.99,3389.04,3011.00,3418.21,599.88,592.26,15.19,0000 0000 0000 0000 000000
2016-06-28 12:25:55,0.00,0.26,0.00,24.84,28.85,31.45,14.32,46.83,1016.62,2031.99,3389.03,3011.00,3418.20,599.87,592.35,15.24,0000 0000 0000 0000 000000
2016-06-28 12:30:56,0.00,0.26,0.00,24.83,28.85,31.46,14.40,46.84,1016.62,2031.99,3389.00,3011.00,3418.07,600.11,592.49,15.29,0000 0000 0000 0000 000000
2016-06-28 12:35:57,0.00,0.26,0.00,24.82,28.85,31.45,14.34,46.82,1016.62,2031.99,3389.00,3011.00,3418.09,599.83,592.35,15.34,0000 0000 0000 0000 000000
2016-06-28 12:40:59,-0.00,0.26,0.00,24.82,28.85,31.45,14.43,46.78,1016.44,2031.99,3389.02,3011.00,3418.34,599.93,592.25,15.39,0000 0000 0000 0000 000000
2016-06-28 12:46:00,0.00,0.26,0.00,24.82,28.85,31.45,14.40,46.73,1016.29,2031.99,3389.00,3011.00,3418.25,599.81,592.03,15.44,0000 0000 0000 0000 000000
2016-06-28 12:51:01,0.00,0.26,0.00,24.82,28.85,31.45,14.38,46.77,1016.17,2031.99,3389.00,3011.00,3418.13,600.06,592.19,15.49,0000 0000 0000 0000 000000
2016-06-28 12:56:02,0.00,0.26,0.00,24.82,28.85,31.45,14.38,46.73,1016.14,2031.99,3389.00,3011.00,3418.06,600.31,592.38,15.54,0000 0000 0000 0000 000000